When you browse on this site, cookies collect data to enhance your experience and personalize the content and advertising you see.
Visit our Privacy Policy to learn more. By continuing to use the site, you agree to this use of cookies and data.
  • In Sweden
  • List of Countries
  • For 7 days
  • Water Temperature
  • Satellite Maps
  • Weather Map
  • Weather Widgets
  • user-avatar
    Login

    Hourly Weather Clearwater

    Today, 18 July, Thursday

    Time Temperature Precipitation Wind Pressure Humidity
    00:00 +29°C° 0 mm 1 mps 763 mmHg 65%
    01:00 +29°C° 0 mm 1 mps 762 mmHg 66%
    02:00 +28°C° 0 mm 1 mps 762 mmHg 67%
    03:00 +28°C° 0 mm 2 mps 762 mmHg 68%
    04:00 +28°C° 0.1 mm 2 mps 762 mmHg 70%
    05:00 +28°C° 0.1 mm 2 mps 762 mmHg 71%
    06:00 +29°C° 0.1 mm 3 mps 763 mmHg 73%
    07:00 +30°C° 0 mm 2 mps 763 mmHg 68%
    08:00 +31°C° 0 mm 2 mps 763 mmHg 64%
    09:00 +32°C° 0 mm 2 mps 763 mmHg 59%
    10:00 +34°C° 0 mm 2 mps 763 mmHg 55%
    11:00 +35°C° 0 mm 2 mps 763 mmHg 52%
    12:00 +36°C° 0 mm 2 mps 762 mmHg 48%
    13:00 +36°C° 0 mm 3 mps 762 mmHg 49%
    14:00 +36°C° 0 mm 3 mps 762 mmHg 49%
    15:00 +36°C° 0 mm 3 mps 761 mmHg 50%
    16:00 +35°C° 0 mm 3 mps 761 mmHg 54%
    17:00 +34°C° 0 mm 3 mps 761 mmHg 58%
    18:00 +34°C° 0 mm 3 mps 761 mmHg 63%
    19:00 +33°C° 0 mm 3 mps 761 mmHg 63%
    20:00 +33°C° 0 mm 3 mps 762 mmHg 64%
    21:00 +31°C° 0 mm 2 mps 762 mmHg 65%
    22:00 +31°C° 0.1 mm 2 mps 762 mmHg 66%
    23:00 +31°C° 0.1 mm 1 mps 762 mmHg 67%

    Tomorrow, 19 July, Friday

    Time Temperature Precipitation Wind Pressure Humidity
    00:00 +29°C° 0.1 mm 0 mps 761 mmHg 68%
    01:00 +30°C° 0.3 mm 1 mps 761 mmHg 69%
    02:00 +30°C° 0.3 mm 1 mps 761 mmHg 71%
    03:00 +30°C° 0.3 mm 1 mps 761 mmHg 72%
    04:00 +30°C° 0.6 mm 1 mps 761 mmHg 72%
    05:00 +30°C° 0.6 mm 1 mps 761 mmHg 72%
    06:00 +30°C° 0.6 mm 1 mps 762 mmHg 71%
    07:00 +31°C° 1.5 mm 1 mps 762 mmHg 66%
    08:00 +32°C° 1.5 mm 1 mps 762 mmHg 61%
    09:00 +33°C° 1.5 mm 1 mps 763 mmHg 56%
    10:00 +35°C° 0.6 mm 2 mps 763 mmHg 53%
    11:00 +35°C° 0.6 mm 3 mps 763 mmHg 50%
    12:00 +36°C° 0.6 mm 3 mps 763 mmHg 47%
    13:00 +36°C° 0.1 mm 3 mps 762 mmHg 48%
    14:00 +36°C° 0.1 mm 3 mps 762 mmHg 49%
    15:00 +36°C° 0.1 mm 3 mps 761 mmHg 50%
    16:00 +35°C° 0 mm 3 mps 761 mmHg 53%
    17:00 +34°C° 0 mm 4 mps 761 mmHg 57%
    18:00 +34°C° 0 mm 4 mps 761 mmHg 60%
    19:00 +33°C° 0 mm 4 mps 761 mmHg 61%
    20:00 +33°C° 0 mm 4 mps 761 mmHg 62%
    21:00 +32°C° 0 mm 4 mps 762 mmHg 63%
    22:00 +30°C° 0.1 mm 4 mps 762 mmHg 67%
    23:00 +30°C° 0.1 mm 5 mps 761 mmHg 71%

    Day after tomorrow, 20 July, Saturday

    Time Temperature Precipitation Wind Pressure Humidity
    00:00 +29°C° 0.1 mm 5 mps 761 mmHg 76%
    01:00 +29°C° 0.1 mm 5 mps 761 mmHg 76%
    02:00 +28°C° 0.1 mm 4 mps 761 mmHg 77%
    03:00 +28°C° 0.1 mm 4 mps 761 mmHg 77%
    04:00 +28°C° 0 mm 4 mps 761 mmHg 76%
    05:00 +29°C° 0 mm 4 mps 761 mmHg 76%
    06:00 +29°C° 0 mm 4 mps 762 mmHg 75%
    07:00 +30°C° 0.1 mm 4 mps 762 mmHg 68%
    08:00 +33°C° 0.1 mm 3 mps 762 mmHg 62%
    09:00 +34°C° 0.1 mm 3 mps 763 mmHg 55%
    10:00 +35°C° 0.2 mm 3 mps 762 mmHg 52%
    11:00 +36°C° 0.2 mm 3 mps 762 mmHg 49%
    12:00 +37°C° 0.2 mm 3 mps 762 mmHg 46%
    13:00 +36°C° 0.2 mm 3 mps 761 mmHg 47%
    14:00 +36°C° 0.2 mm 3 mps 761 mmHg 49%
    15:00 +35°C° 0.2 mm 3 mps 761 mmHg 51%
    16:00 +35°C° 0.1 mm 3 mps 761 mmHg 54%
    17:00 +35°C° 0.1 mm 3 mps 761 mmHg 56%
    18:00 +34°C° 0.1 mm 3 mps 761 mmHg 58%
    19:00 +34°C° 0 mm 3 mps 761 mmHg 60%
    20:00 +33°C° 0 mm 3 mps 761 mmHg 62%
    21:00 +31°C° 0 mm 3 mps 762 mmHg 63%
    22:00 +31°C° 0 mm 3 mps 761 mmHg 65%
    23:00 +31°C° 0 mm 3 mps 761 mmHg 67%

    21 July, Sunday

    Time Temperature Precipitation Wind Pressure Humidity
    00:00 +30°C° 0 mm 3 mps 761 mmHg 69%
    01:00 +30°C° 0 mm 4 mps 761 mmHg 71%
    02:00 +30°C° 0 mm 4 mps 761 mmHg 72%
    03:00 +29°C° 0 mm 5 mps 761 mmHg 73%
    04:00 +29°C° 0 mm 4 mps 761 mmHg 73%
    05:00 +29°C° 0 mm 4 mps 761 mmHg 73%
    06:00 +29°C° 0 mm 4 mps 761 mmHg 73%
    07:00 +32°C° 0 mm 4 mps 762 mmHg 67%
    08:00 +33°C° 0 mm 3 mps 762 mmHg 61%
    09:00 +34°C° 0 mm 3 mps 762 mmHg 55%
    10:00 +35°C° 0.1 mm 3 mps 762 mmHg 52%
    11:00 +36°C° 0.1 mm 3 mps 762 mmHg 49%
    12:00 +36°C° 0.1 mm 2 mps 762 mmHg 45%
    13:00 +36°C° 0.3 mm 3 mps 761 mmHg 47%
    14:00 +36°C° 0.3 mm 3 mps 761 mmHg 49%
    15:00 +35°C° 0.3 mm 3 mps 761 mmHg 51%
    16:00 +35°C° 0.1 mm 3 mps 760 mmHg 52%
    17:00 +35°C° 0.1 mm 3 mps 760 mmHg 53%
    18:00 +35°C° 0.1 mm 2 mps 760 mmHg 54%
    19:00 +34°C° 0 mm 2 mps 760 mmHg 56%
    20:00 +34°C° 0 mm 2 mps 761 mmHg 58%
    21:00 +32°C° 0 mm 1 mps 761 mmHg 60%
    22:00 +31°C° 0 mm 2 mps 761 mmHg 63%
    23:00 +31°C° 0 mm 2 mps 761 mmHg 65%

    22 July, Monday

    Time Temperature Precipitation Wind Pressure Humidity
    00:00 +30°C° 0 mm 2 mps 760 mmHg 68%
    01:00 +30°C° 0 mm 2 mps 760 mmHg 68%
    02:00 +30°C° 0 mm 2 mps 760 mmHg 69%
    03:00 +30°C° 0 mm 2 mps 760 mmHg 70%
    04:00 +30°C° 0.5 mm 2 mps 760 mmHg 70%
    05:00 +30°C° 0.5 mm 2 mps 761 mmHg 71%
    06:00 +30°C° 0.5 mm 3 mps 761 mmHg 72%
    07:00 +31°C° 0.8 mm 3 mps 761 mmHg 67%
    08:00 +32°C° 0.8 mm 2 mps 761 mmHg 62%
    09:00 +34°C° 0.8 mm 2 mps 762 mmHg 57%
    10:00 +35°C° 0.1 mm 3 mps 762 mmHg 54%
    11:00 +35°C° 0.1 mm 3 mps 762 mmHg 51%
    12:00 +36°C° 0.1 mm 3 mps 761 mmHg 48%
    13:00 +36°C° 0.1 mm 3 mps 761 mmHg 48%
    14:00 +36°C° 0.1 mm 3 mps 760 mmHg 48%
    15:00 +36°C° 0.1 mm 4 mps 760 mmHg 48%
    16:00 +35°C° 0 mm 4 mps 760 mmHg 52%
    17:00 +35°C° 0 mm 3 mps 760 mmHg 55%
    18:00 +34°C° 0 mm 3 mps 760 mmHg 58%
    19:00 +34°C° 0 mm 3 mps 760 mmHg 60%
    20:00 +33°C° 0 mm 3 mps 761 mmHg 61%
    21:00 +31°C° 0 mm 3 mps 761 mmHg 63%
    22:00 +31°C° 0 mm 2 mps 761 mmHg 64%
    23:00 +31°C° 0 mm 2 mps 760 mmHg 66%

    23 July, Tuesday

    Time Temperature Precipitation Wind Pressure Humidity
    00:00 +30°C° 0 mm 1 mps 760 mmHg 68%
    01:00 +30°C° 0 mm 1 mps 760 mmHg 68%
    02:00 +30°C° 0 mm 1 mps 759 mmHg 69%
    03:00 +28°C° 0 mm 0 mps 759 mmHg 69%
    04:00 +30°C° 0.4 mm 1 mps 760 mmHg 69%
    05:00 +30°C° 0.4 mm 1 mps 760 mmHg 69%
    06:00 +30°C° 0.4 mm 1 mps 760 mmHg 69%
    07:00 +31°C° 0.7 mm 1 mps 761 mmHg 61%
    08:00 +33°C° 0.7 mm 1 mps 761 mmHg 54%
    09:00 +34°C° 0.7 mm 1 mps 761 mmHg 47%
    10:00 +35°C° 0.1 mm 2 mps 761 mmHg 46%
    11:00 +36°C° 0.1 mm 2 mps 760 mmHg 45%
    12:00 +36°C° 0.1 mm 3 mps 760 mmHg 44%
    13:00 +36°C° 0.1 mm 3 mps 760 mmHg 46%
    14:00 +36°C° 0.1 mm 3 mps 760 mmHg 47%
    15:00 +36°C° 0.1 mm 4 mps 759 mmHg 49%
    16:00 +35°C° 0.1 mm 4 mps 759 mmHg 52%
    17:00 +34°C° 0.1 mm 3 mps 759 mmHg 54%
    18:00 +34°C° 0.1 mm 3 mps 759 mmHg 57%
    19:00 +33°C° 0 mm 3 mps 760 mmHg 59%
    20:00 +33°C° 0 mm 3 mps 760 mmHg 61%
    21:00 +31°C° 0 mm 3 mps 761 mmHg 62%
    22:00 +31°C° 0 mm 3 mps 760 mmHg 64%
    23:00 +31°C° 0 mm 2 mps 760 mmHg 65%
    Show more